Weather History for Block Island, RI

Change the Weather History Date:

Sunday, January 5, 2014

  Actual Average Record
Temperature  
Mean Temperature 40 °F -  
Max Temperature 50 °F 37 °F 57 °F (1950)
Min Temperature 33 °F 26 °F 1 °F (1981)
Degree Days  
Heating Degree Days 24    
Moisture  
Dew Point 33 °F    
Average Humidity 78    
Maximum Humidity 93    
Minimum Humidity 56    
Precipitation  
Precipitation 0.01 in - - ()
Sea Level Pressure  
Sea Level Pressure 30.22 in    
Wind  
Wind Speed 10 mph (SSW)    
Max Wind Speed 20 mph    
Max Gust Speed 28 mph    
Visibility 9 miles    
Events      
Averages and records for this station are not official NWS values.
T = Trace of Precipitation, MM = Missing Value Source: NWS Daily Summary

Daily Weather History Graph

Daily Weather History Graph

Search for Another Location

Airport:

Trip Planner

Search our weather history database for the weather conditions in past years. The results will help you decide how hot, cold, wet, or windy it might be!

Date:

Astronomy

Jan. 05, 2014 Rise Set
Actual Time 7:11 AM EST 4:31 PM EST
Civil Twilight 6:40 AM EST 5:02 PM EST
Nautical Twilight 6:06 AM EST 5:37 PM EST
Astronomical Twilight 5:33 AM EST 6:10 PM EST
Moon 9:48 AM EST (1/5) 9:59 PM EST (1/5)
Length of Visible Light 10h 21m
Length of Day
9h 19m
Waxing Crescent, 24% of the Moon is Illuminated
Jan 5
Waxing Crescent
Jan 7
First Quarter
Jan 15
Full
Jan 24
Last Quarter
Jan 30
New

Hourly Weather History & Observations

Time (EST) Temp. Windchill Dew Point Humidity Pressure Visibility Wind Dir Wind Speed Gust Speed Precip Events Conditions
12:15 AM 33.8 °F 24.3 °F 26.6 °F 75% 30.29 in 10.0 mi West 13.8 mph 17.3 mph N/A   Clear
12:35 AM 33.8 °F 24.3 °F 26.6 °F 75% 30.29 in 10.0 mi West 13.8 mph 20.7 mph N/A   Clear
12:55 AM 33.8 °F 25.8 °F 26.6 °F 75% 30.28 in 10.0 mi West 10.4 mph 18.4 mph N/A   Clear
1:15 AM 33.8 °F 25.8 °F 26.6 °F 75% 30.27 in 10.0 mi West 10.4 mph - N/A   Clear
1:35 AM 35.6 °F 26.2 °F 26.6 °F 70% 30.28 in 10.0 mi West 15.0 mph - N/A   Clear
1:55 AM 35.6 °F 28.0 °F 26.6 °F 70% 30.28 in 10.0 mi West 10.4 mph 18.4 mph N/A   Partly Cloudy
2:15 AM 35.6 °F 26.6 °F 26.6 °F 70% 30.28 in 10.0 mi West 13.8 mph 19.6 mph N/A   Mostly Cloudy
2:35 AM 35.6 °F 27.1 °F 26.6 °F 70% 30.29 in 10.0 mi West 12.7 mph 19.6 mph N/A   Overcast
2:55 AM 35.6 °F 26.2 °F 26.6 °F 70% 30.29 in 10.0 mi West 15.0 mph 21.9 mph N/A   Overcast
3:15 AM 35.6 °F 27.1 °F 26.6 °F 70% 30.29 in 10.0 mi West 12.7 mph 21.9 mph N/A   Scattered Clouds
3:35 AM 33.8 °F 25.3 °F 24.8 °F 70% 30.29 in 10.0 mi West 11.5 mph 17.3 mph N/A   Clear
3:55 AM 33.8 °F 24.8 °F 24.8 °F 70% 30.29 in 10.0 mi West 12.7 mph 19.6 mph N/A   Clear
4:15 AM 33.8 °F 25.3 °F 23.0 °F 65% 30.28 in 10.0 mi West 11.5 mph 18.4 mph N/A   Clear
4:35 AM 33.8 °F 25.8 °F 21.2 °F 60% 30.28 in 10.0 mi West 10.4 mph 18.4 mph N/A   Clear
4:55 AM 33.8 °F 26.4 °F 21.2 °F 60% 30.29 in 10.0 mi WSW 9.2 mph - N/A   Clear
5:15 AM 33.8 °F 26.4 °F 19.4 °F 56% 30.29 in 10.0 mi WSW 9.2 mph - N/A   Clear
5:35 AM 33.8 °F 25.3 °F 21.2 °F 60% 30.29 in 10.0 mi WSW 11.5 mph - N/A   Clear
5:55 AM 33.8 °F 24.8 °F 21.2 °F 60% 30.30 in 10.0 mi WSW 12.7 mph - N/A   Clear
6:15 AM 33.8 °F 27.0 °F 21.2 °F 60% 30.30 in 10.0 mi WSW 8.1 mph - N/A   Partly Cloudy
6:35 AM 33.8 °F 27.7 °F 24.8 °F 70% 30.31 in 10.0 mi WSW 6.9 mph - N/A   Mostly Cloudy
6:55 AM 35.6 °F 30.7 °F 26.6 °F 70% 30.30 in 10.0 mi WSW 5.8 mph - N/A   Overcast
7:15 AM 35.6 °F 31.7 °F 28.4 °F 75% 30.30 in 10.0 mi West 4.6 mph - N/A   Overcast
7:35 AM 35.6 °F 31.7 °F 26.6 °F 70% 30.31 in 10.0 mi WSW 4.6 mph - N/A   Overcast
7:55 AM 35.6 °F 32.8 °F 28.4 °F 75% 30.31 in 10.0 mi West 3.5 mph - N/A   Overcast
8:15 AM 37.4 °F 34.9 °F 28.4 °F 70% 30.32 in 10.0 mi West 3.5 mph - N/A   Overcast
8:35 AM 37.4 °F 34.9 °F 28.4 °F 70% 30.33 in 10.0 mi West 3.5 mph - N/A   Overcast
8:55 AM 37.4 °F - 28.4 °F 70% 30.33 in 10.0 mi Calm Calm - N/A   Overcast
9:15 AM 37.4 °F - 30.2 °F 75% 30.33 in 10.0 mi Calm Calm - N/A   Overcast
9:35 AM 37.4 °F - 30.2 °F 75% 30.33 in 10.0 mi Calm Calm - N/A   Overcast
9:55 AM 39.2 °F - 30.2 °F 70% 30.33 in 10.0 mi Calm Calm - N/A   Overcast
10:15 AM 39.2 °F - 32.0 °F 75% 30.34 in 10.0 mi Calm Calm - N/A   Overcast
10:35 AM 39.2 °F 35.9 °F 30.2 °F 70% 30.32 in 10.0 mi NW 4.6 mph - N/A   Overcast
10:55 AM 39.2 °F 37.0 °F 32.0 °F 75% 30.31 in 10.0 mi NW 3.5 mph - N/A   Overcast
11:15 AM 39.2 °F 37.0 °F 32.0 °F 75% 30.30 in 10.0 mi NW 3.5 mph - N/A   Overcast
11:35 AM 37.4 °F 32.8 °F 32.0 °F 81% 30.28 in 10.0 mi NNW 5.8 mph - N/A   Overcast
11:55 AM 37.4 °F 33.8 °F 30.2 °F 75% 30.27 in 10.0 mi NNE 4.6 mph - N/A   Overcast
12:15 PM 37.4 °F 33.8 °F 30.2 °F 75% 30.27 in 10.0 mi NNE 4.6 mph - N/A   Overcast
12:35 PM 37.4 °F 34.9 °F 30.2 °F 75% 30.27 in 10.0 mi North 3.5 mph - N/A   Overcast
12:55 PM 35.6 °F 30.7 °F 30.2 °F 81% 30.26 in 10.0 mi NNE 5.8 mph - N/A   Overcast
1:15 PM 35.6 °F 31.7 °F 30.2 °F 81% 30.25 in 10.0 mi NNE 4.6 mph - N/A   Overcast
1:35 PM 35.6 °F 32.8 °F 30.2 °F 81% 30.24 in 10.0 mi ENE 3.5 mph - N/A   Overcast
1:55 PM 35.6 °F 32.8 °F 30.2 °F 81% 30.25 in 9.0 mi NNE 3.5 mph - N/A   Overcast
2:15 PM 35.6 °F - 30.2 °F 81% 30.25 in 10.0 mi Calm Calm - N/A   Overcast
2:35 PM 35.6 °F 31.7 °F 32.0 °F 87% 30.24 in 9.0 mi ENE 4.6 mph - N/A   Overcast
2:55 PM 37.4 °F 32.1 °F 32.0 °F 81% 30.22 in 10.0 mi ENE 6.9 mph - N/A   Overcast
3:15 PM 37.4 °F 32.8 °F 32.0 °F 81% 30.22 in 10.0 mi ENE 5.8 mph - N/A   Overcast
3:35 PM 37.4 °F 32.1 °F 33.8 °F 87% 30.22 in 10.0 mi East 6.9 mph - N/A   Overcast
3:55 PM 37.4 °F 31.4 °F 33.8 °F 87% 30.21 in 10.0 mi East 8.1 mph - N/A   Mostly Cloudy
4:15 PM 39.2 °F 34.2 °F 33.8 °F 81% 30.21 in 10.0 mi East 6.9 mph - N/A   Mostly Cloudy
4:35 PM 39.2 °F 33.6 °F 35.6 °F 87% 30.20 in 10.0 mi East 8.1 mph - N/A   Overcast
4:55 PM 39.2 °F 34.2 °F 35.6 °F 87% 30.19 in 10.0 mi East 6.9 mph - N/A   Overcast
5:15 PM 39.2 °F 34.2 °F 35.6 °F 87% 30.18 in 10.0 mi East 6.9 mph - N/A   Overcast
5:35 PM 39.2 °F 35.0 °F 35.6 °F 87% 30.18 in 10.0 mi East 5.8 mph - N/A   Overcast
5:55 PM 41.0 °F 37.1 °F 37.4 °F 87% 30.17 in 10.0 mi East 5.8 mph - N/A   Overcast
6:15 PM 42.8 °F 40.1 °F 37.4 °F 81% 30.17 in 10.0 mi ESE 4.6 mph - N/A   Scattered Clouds
6:35 PM 42.8 °F 38.6 °F 39.2 °F 87% 30.15 in 8.0 mi ESE 6.9 mph - N/A   Mostly Cloudy
6:55 PM 42.8 °F 38.0 °F 39.2 °F 87% 30.14 in 8.0 mi SE 8.1 mph - N/A   Mostly Cloudy
7:15 PM 44.6 °F 39.7 °F 42.8 °F 93% 30.13 in 8.0 mi SE 9.2 mph - N/A   Scattered Clouds
7:35 PM 46.4 °F 41.5 °F 44.6 °F 93% 30.11 in 10.0 mi SE 10.4 mph - N/A   Scattered Clouds
7:55 PM 46.4 °F 41.5 °F 42.8 °F 87% 30.10 in 10.0 mi SE 10.4 mph - N/A   Clear
8:15 PM 46.4 °F 40.4 °F 44.6 °F 93% 30.08 in 10.0 mi SE 13.8 mph 20.7 mph N/A   Mostly Cloudy
8:35 PM 46.4 °F 40.7 °F 44.6 °F 93% 30.07 in 10.0 mi SE 12.7 mph - N/A   Overcast
8:55 PM 48.2 °F - 44.6 °F 87% 30.06 in 10.0 mi SE 13.8 mph 17.3 mph N/A   Overcast
9:15 PM 48.2 °F - 44.6 °F 87% 30.04 in 10.0 mi SE 15.0 mph 21.9 mph N/A   Overcast
9:35 PM 48.2 °F - 44.6 °F 87% 30.03 in 10.0 mi SE 16.1 mph 21.9 mph N/A   Overcast
9:55 PM 48.2 °F - 44.6 °F 87% 30.01 in 5.0 mi SSE 15.0 mph - N/A   Overcast
10:15 PM 48.2 °F - 46.4 °F 93% 29.99 in 2.0 mi SSE 15.0 mph 21.9 mph N/A   Overcast
10:35 PM 48.2 °F - 46.4 °F 93% 29.98 in 2.0 mi SSE 15.0 mph 21.9 mph N/A   Overcast
10:55 PM 48.2 °F - 46.4 °F 93% 29.95 in 3.0 mi SSE 18.4 mph 23.0 mph N/A   Overcast
11:15 PM 48.2 °F - 46.4 °F 93% 29.93 in 7.0 mi SSE 19.6 mph 26.5 mph 0.01 in   Overcast
11:35 PM 48.2 °F - 46.4 °F 93% 29.91 in 5.0 mi SSE 18.4 mph 26.5 mph 0.01 in   Overcast
11:55 PM 50.0 °F - 46.4 °F 87% 29.89 in 2.5 mi SSE 19.6 mph 27.6 mph 0.01 in   Overcast